This is the latest recevied weather packets stored in our database for station/object K1KOF. If no packets are shown the sender has not sent any weather packets the latest 10 day(s).
| Time | Temp. | Humidity | Pressure | Rain* | Wind** | Luminosity | Snow |
|---|---|---|---|---|---|---|---|
| 1777749764 | 16.67° C | 79% | 1022.8 hPa | 0 mm | - | 713 W/m² | - |
| 1777749461 | 16.11° C | 83% | 1022.8 hPa | 0 mm | - | 492 W/m² | - |
| 1777749159 | 16.11° C | 80% | 1023 hPa | 0 mm | - | 333 W/m² | - |
| 1777748855 | 15.56° C | 81% | 1022.9 hPa | 0 mm | - | 480 W/m² | - |
| 1777748553 | 16.11° C | 83% | 1023 hPa | 0 mm | - | 394 W/m² | - |
| 1777748253 | 15.56° C | 84% | 1023.1 hPa | 0 mm | - | 329 W/m² | - |
| 1777747950 | 15.56° C | 86% | 1023.1 hPa | 0 mm | - | 246 W/m² | - |
| 1777747646 | 15° C | 85% | 1023.1 hPa | 0 mm | - | 154 W/m² | - |
| 1777747341 | 15° C | 85% | 1023.2 hPa | 0 mm | - | 170 W/m² | - |
| 1777747039 | 15° C | 86% | 1023.3 hPa | 0 mm | - | 206 W/m² | - |
| 1777746734 | 15° C | 86% | 1023.4 hPa | 0 mm | - | 226 W/m² | - |
| 1777746430 | 15° C | 86% | 1023.6 hPa | 0 mm | - | 228 W/m² | - |
| 1777746125 | 14.44° C | 87% | 1023.2 hPa | 0 mm | - | 184 W/m² | - |
| 1777745823 | 14.44° C | 87% | 1023.2 hPa | 0 mm | - | 201 W/m² | - |
| 1777745523 | 14.44° C | 88% | 1023.4 hPa | 0 mm | - | 209 W/m² | - |
| 1777745219 | 14.44° C | 88% | 1023.3 hPa | 0 mm | - | 168 W/m² | - |
| 1777744916 | 14.44° C | 88% | 1023.2 hPa | 0 mm | - | 165 W/m² | - |
| 1777744615 | 14.44° C | 88% | 1023.3 hPa | 0 mm | - | 148 W/m² | - |
| 1777744310 | 14.44° C | 87% | 1023.1 hPa | 0 mm | - | 185 W/m² | - |
| 1777744008 | 15° C | 88% | 1023 hPa | 0 mm | - | 350 W/m² | - |
| 1777743704 | 15° C | 91% | 1023 hPa | 0 mm | - | 317 W/m² | - |
| 1777743402 | 15° C | 90% | 1022.9 hPa | 0 mm | - | 229 W/m² | - |
| 1777743100 | 15° C | 92% | 1022.9 hPa | 0 mm | - | 377 W/m² | - |
| 1777742797 | 14.44° C | 91% | 1023.1 hPa | 0 mm | - | 209 W/m² | - |
| 1777742493 | 14.44° C | 91% | 1023 hPa | 0 mm | - | 124 W/m² | - |
* Rain latest hour (hover to see other rain measurements)
** Current wind speed in m/s (hover to see current wind gust speed)